Zurück zum Katalog

FENGYUN 1C DEB

AktivSSO
NORAD 32362·DEBRIS·🇨🇳 China

Gestartet May 10, 1999 von Taiyuan Satellite Launch Center

Loading…

Nächste Überflüge (nächste 24 Stunden)

TLE

AktuellSource: Space-Track

Epoche: Sep 13, 2026, 16:12 UTC

1 32362U 99025CZF 26256.67512338  .00001732  00000-0  16743-2 0  9993
2 32362  99.8521 237.5064 0268666 306.9504  50.7307 13.66532656948837

Verfolge FENGYUN 1C DEB in Echtzeit mit AllMySat

Download on the App Store